Weather History for KSET - February, 2013

Change the Weather History Date:

Monday, February 25, 2013

  Actual Average (KSTL) Record (KSTL)
Temperature  
Mean Temperature 34 °F 39 °F  
Max Temperature 43 °F 48 °F 76 °F (1996)
Min Temperature 26 °F 30 °F 1 °F (1967)
Degree Days  
Heating Degree Days 30 26  
Month to date heating degree days 730  
Since 1 July heating degree days 3524  
Cooling Degree Days 0 0  
Month to date cooling degree days 0  
Year to date cooling degree days 0  
Moisture  
Dew Point 27 °F    
Average Humidity 73    
Maximum Humidity 86    
Minimum Humidity 56    
Precipitation  
Precipitation 0.09 in 0.08 in 1.92 in (1899)
Month to date precipitation 2.00  
Year to date precipitation 4.40  
Snow  
Snow 0.00 in 0.10 in 9.60 in (1993)
Month to date snowfall 3.9  
Since 1 July snowfall 14.6  
Snow Depth -    
Sea Level Pressure  
Sea Level Pressure 29.92 in    
Wind  
Wind Speed 10 mph (ENE)    
Max Wind Speed 23 mph    
Max Gust Speed 32 mph    
Visibility 8 miles    
Events Rain , Snow    
T = Trace of Precipitation, MM = Missing Value Source: NWS Daily Summary

Daily Weather History Graph

Daily Weather History Graph

Search for Another Location

Airport or City:

Trip Planner

Search our weather history database for the weather conditions in past years. The results will help you decide how hot, cold, wet, or windy it might be!

Date:

Astronomy

Feb. 25, 2013 Rise Set
Actual Time 6:39 AM CST 5:50 PM CST
Civil Twilight 6:12 AM CST 6:17 PM CST
Nautical Twilight 5:41 AM CST 6:48 PM CST
Astronomical Twilight 5:10 AM CST 7:19 PM CST
Moon 6:03 PM CST (2/25) 6:10 AM CST (2/25)
Length of Visible Light 12h 04m
Length of Day
11h 11m
Full, 100% of the Moon is Illuminated
Feb 25
Full
Feb 25
Full
Mar 4
Last Quarter
Mar 11
New
Mar 19
First Quarter

Hourly Weather History & Observations

Time (CST) Temp. Windchill Dew Point Humidity Pressure Visibility Wind Dir Wind Speed Gust Speed Precip Events Conditions
12:54 AM 30.0 °F 26.5 °F 23.0 °F 75% 30.08 in 10.0 mi NE 3.5 mph - N/A   Clear
1:54 AM 30.0 °F 24.1 °F 23.0 °F 75% 30.09 in 10.0 mi ENE 5.8 mph - N/A   Clear
2:54 AM 28.0 °F 22.8 °F 21.9 °F 78% 30.07 in 9.0 mi East 4.6 mph - N/A   Clear
3:54 AM 26.1 °F 17.6 °F 21.0 °F 81% 30.05 in 8.0 mi East 8.1 mph - N/A   Clear
4:54 AM 28.0 °F 24.2 °F 24.1 °F 85% 30.06 in 8.0 mi East 3.5 mph - N/A   Clear
5:54 AM 27.0 °F 18.0 °F 21.9 °F 81% 30.03 in 8.0 mi East 9.2 mph - N/A   Clear
6:54 AM 28.9 °F 23.9 °F 21.9 °F 75% 30.03 in 8.0 mi ENE 4.6 mph - N/A   Clear
7:54 AM 28.0 °F 20.8 °F 23.0 °F 81% 30.04 in 7.0 mi ESE 6.9 mph - N/A   Clear
8:54 AM 33.1 °F 25.5 °F 27.0 °F 78% 30.04 in 7.0 mi East 9.2 mph - N/A   Clear
9:54 AM 37.9 °F 29.6 °F 27.0 °F 65% 30.03 in 9.0 mi ESE 13.8 mph - N/A   Clear
10:54 AM 37.9 °F 30.0 °F 28.0 °F 68% 30.03 in 9.0 mi East 12.7 mph - N/A   Clear
11:54 AM 39.9 °F 32.9 °F 28.9 °F 65% 30.00 in 10.0 mi ESE 11.5 mph - N/A   Clear
12:54 PM 39.9 °F 32.1 °F 28.9 °F 65% 29.98 in 10.0 mi East 13.8 mph - N/A   Clear
1:54 PM 43.0 °F 37.2 °F 30.0 °F 60% 29.92 in 10.0 mi ENE 10.4 mph - N/A   Clear
2:54 PM 43.0 °F 34.8 °F 28.0 °F 56% 29.87 in 10.0 mi ENE 18.4 mph - N/A   Clear
3:54 PM 41.0 °F 32.8 °F 28.9 °F 62% 29.86 in 10.0 mi NE 16.1 mph 24.2 mph N/A   Clear
4:54 PM 39.9 °F 31.1 °F 28.9 °F 65% 29.85 in 10.0 mi ENE 17.3 mph - N/A   Partly Cloudy
5:54 PM 39.0 °F 29.3 °F 30.9 °F 73% 29.80 in 10.0 mi NE 19.6 mph - N/A   Overcast
6:54 PM 39.0 °F 29.9 °F 30.9 °F 73% 29.80 in 10.0 mi NE 17.3 mph - N/A   Overcast
8:54 PM 37.9 °F 27.1 °F 30.0 °F 73% 29.79 in 10.0 mi NNE 23.0 mph 32.2 mph 0.00 in   Overcast
9:54 PM 37.0 °F 26.2 °F 30.0 °F 76% 29.75 in 7.0 mi NE 21.9 mph 29.9 mph 0.00 in Rain Light Rain
10:44 PM 35.6 °F 26.2 °F 30.2 °F 81% 29.72 in 3.0 mi NE 15.0 mph 26.5 mph 0.03 in Snow Light Snow
10:54 PM 36.0 °F 25.6 °F 30.0 °F 79% 29.73 in 3.0 mi ENE 18.4 mph 27.6 mph 0.04 in Snow Light Snow
11:02 PM 35.6 °F 25.2 °F 30.2 °F 81% 29.71 in 3.0 mi ENE 18.4 mph - 0.02 in Rain Rain
11:54 PM 36.0 °F 25.6 °F 32.0 °F 86% 29.66 in 5.0 mi NE 18.4 mph 27.6 mph 0.05 in Rain Light Rain